Regional Weather Roundup
Issued by NWS Goodland, KS

Home | Current Version | Previous Version | Text Only | Print | Product List | Glossary Off
Versions: 1 2 3 4 5 6 7 8 9 10 11 12 13 14 15 16 17 18 19 20 21 22 23 24 25 26 27 28 29 30 31 32 33 34 35 36 37 38 39 40 41 42 43 44 45 46 47 48 49 50

666
ASUS43 KGLD 271808
RWRGLD

GOODLAND FORECAST AREA HOURLY WEATHER ROUNDUP
NATIONAL WEATHER SERVICE GOODLAND KS
1200 PM MDT WED JUL 27 2016

...OFFICIAL OBSERVATIONS...

CITY           SKY/WX    TMP DP  RH WIND       PRES   REMARKS
GOODLAND KS    SUNNY     83  64  52 NE8       30.14S
HILL CITY KS   SUNNY     87  66  49 CALM      30.06F
IMPERIAL NEB   MOSUNNY   83  60  45 NE9       30.12F
MCCOOK NEB     TSTM      71  66  84 N7        30.09F
AKRON CO       SUNNY     79  61  53 E7        30.16F
BURLINGTON CO  SUNNY     81  60  48 E7        30.16F
LIMON CO       SUNNY     85  50  29 SW6       30.21S
$$

...UNOFFICIAL OBSERVATIONS...

CITY           SKY/WX    TMP DP  RH WIND       PRES   REMARKS
COLBY KS       MOSUNNY   88  66  48 NW5       30.12F
LENORA KS        N/A     89  32  13 MISG        N/A
NORTON KS      SUNNY     90  55  31 N10       30.07
KIT CARSON CO    N/A     83  59  44 MISG        N/A
YUMA CO          N/A     78  65  63 CALM        N/A
$$




USA.gov is the U.S. government's official web portal to all federal, state and local government web resources and services.